Location: Six Mile Lake
(44.9000°N, 79.7170°W)
Time: 16:12:03
(UTC-04:00)

NOAA 18 - Pass Details

Date: 07 July 2022
Orbit: 839 x 860 km, 98.9° (Epoch: 11 August)

Event Time Altitude Azimuth Distance (km) Brightness Sun altitude
Exits shadow 22:31:31 16° 148° (SSE) 2,092 6.6 -12.0°
Maximum altitude 22:35:55 62° 71° (ENE) 965 5.4 -12.5°
Drops below altitude 10° 22:41:23 10° 352° (N) 2,506 8.6 -13.1°
Sets 22:43:48 0° 349° (N) 3,448 9.6 -13.4°
